Regional Weather Roundup
Issued by NWS

Home | Current Version | Previous Version | Text Only | Print | Product List | Glossary On
Versions: 1 2 3 4 5 6 7 8 9 10 11 12 13 14 15 16 17 18 19 20 21 22 23 24 25 26 27 28 29 30 31 32 33 34 35 36 37 38 39 40 41 42 43 44 45 46 47 48 49 50
827
ASUS44 KJAN 011410
RWRMS

MISSISSIPPI HOURLY WEATHER ROUNDUP
NATIONAL WEATHER SERVICE JACKSON MS
900 AM CDT WED OCT 01 2014

NOTE: "FAIR: INDICATES FEW OR NO CLOUDS BELOW 12,000 FEET WITH NO
SIGNIFICANT WEATHER AND/OR OBSTRUCTIONS TO VISIBILITY.

MSZ001>002-007>008-010>013-018>021-025>028-034>036-011500-
NORTHWEST MISSISSIPPI

CITY           SKY/WX    TMP DP  RH WIND       PRES   REMARKS
CLARKSDALE     FAIR      73  68  83 S6        29.94R
CLEVELAND      FAIR      75  70  85 S8        29.92R
GREENWOOD      MOSUNNY   74  69  85 S3        29.94R
GREENVILLE     PTSUNNY   77  69  76 S9        29.91R
GRENADA        FAIR      72  63  73 CALM      29.95S
OLIVE BRANCH   MOSUNNY   72  66  83 S7        29.95R
OXFORD         FAIR      70  59  68 S6        29.97R
TUNICA         SUNNY     73  64  73 S6        29.94R
$$

MSZ003>006-009-014>017-022>024-029>033-037>039-011500-
NORTHEAST MISSISSIPPI

CITY           SKY/WX    TMP DP  RH WIND       PRES   REMARKS
COLUMBUS AFB   SUNNY     71  64  79 VRB5      29.97R
CORINTH        FAIR      70  63  78 SE6       29.96S
GOLDN TRIANGLE SUNNY     72  63  73 S3        29.97R
STARKVILLE     FAIR      70  64  83 CALM      29.97R
TUPELO         SUNNY     72  63  73 S5        29.96S
$$

MSZ040-058-011500-
CENTRAL MISSISSIPPI

CITY           SKY/WX    TMP DP  RH WIND       PRES   REMARKS
JACKSON INTL   CLOUDY    73  71  93 S7        29.95R FOG
JACKSON HAWKNS CLOUDY    73  70  90 S8        29.95R FOG
MERIDIAN KEY   SUNNY     72  67  84 S7        29.97R
MERIDIAN NAS   SUNNY     73  66  78 CALM      29.98R
RAYMOND        CLOUDY    73  68  83 SE6       29.95R HAZE
VICKSBURG      SUNNY     76  70  82 S9        29.92R
$$

MSZ059>079-011500-
SOUTH MISSISSIPPI

CITY           SKY/WX    TMP DP  RH WIND       PRES   REMARKS
BROOKHAVEN     PTSUNNY   73  72  94 SE7       29.97R FOG
COLUMBIA       FAIR      73  72  94 SE3       29.94R
HATTIESBURG    PTSUNNY   69  68  96 CALM      29.97R
MCCOMB         PTSUNNY   73  71  93 SE5       29.94S
NATCHEZ        CLOUDY    75  72  88 SE8       29.93S
PINE BELT      SUNNY     72  66  83 SE5       29.97S
$$

MSZ080>082-011500-
COASTAL MISSISSIPPI

CITY           SKY/WX    TMP DP  RH WIND       PRES   REMARKS
BAY ST LOUIS   MOSUNNY   75  70  83 CALM      29.94R
BILOXI         SUNNY     77  69  77 E7        29.94R
PASCAGOULA     SUNNY     76  70  82 E5        29.95R
GULFPORT       SUNNY     77  70  79 E7        29.94R
$$



USA.gov is the U.S. government's official web portal to all federal, state and local government web resources and services.